AF1E Weather Reports


time (UTC)temp
C
wind
direction
speed
KPH
gust
KPH
rain 1hr
cm
rain 24hr
cm
rain mn
cm
humidity
%
barometer
mb
20260906071537 21 0.0 0.0 0.00 0.30 0.00 94 1009.7
20260906070538 21 0.0 0.0 0.00 0.30 0.00 94 1009.6
20260906065517 21 0.0 0.0 0.00 0.30 0.00 94 1009.7
20260906064517 21 0.0 0.0 0.00 0.30 0.00 94 1010.1
20260906063518 21 0.0 0.0 0.00 0.30 0.00 94 1010.4
20260906062537 22 0.0 0.0 0.00 0.30 0.00 94 1010.5
20260906061518 22 0.0 1.6 0.00 0.30 0.00 95 1010.5
20260906060517 21 0.0 0.0 0.00 0.30 0.00 94 1010.6
20260906055517 21 0.0 0.0 0.00 0.30 0.00 94 1010.6
20260906054517 21 0.0 1.6 0.00 0.30 0.00 95 1010.7
20260906053517 21 0.0 1.6 0.00 0.30 0.00 95 1010.7
20260906052517 22 0.0 0.0 0.00 0.30 0.00 95 1010.8
20260906051518 21 0.0 0.0 0.00 0.30 0.00 95 1011.0
20260906050517 21 0.0 0.0 0.00 0.30 0.00 95 1011.0
20260906045517 21 0.0 0.0 0.00 0.30 0.00 95 1011.0
20260906044516 21 0.0 0.0 0.00 0.30 0.00 94 1011.1
20260906043517 22 0.0 0.0 0.00 0.30 0.00 94 1011.2
20260906042517 22 0.0 0.0 0.00 0.30 0.00 94 1011.2
20260906041517 22 0.0 0.0 0.00 0.30 0.00 94 1011.1
20260906040538 22 0.0 0.0 0.00 0.30 0.00 94 1011.4
20260906035517 22 0.0 0.0 0.00 0.30 0.30 94 1011.5
20260906034517 22 0.0 0.0 0.00 0.30 0.30 93 1011.4
20260906033517 22 0.0 0.0 0.00 0.30 0.30 93 1011.3
20260906032517 22 0.0 0.0 0.00 0.30 0.30 93 1011.4
20260906031537 22 0.0 0.0 0.00 0.30 0.30 93 1011.4
20260906030516 22 0.0 0.0 0.00 0.30 0.30 93 1011.3
20260906025517 22 0.0 0.0 0.00 0.30 0.30 92 1011.1
20260906024517 22 0.0 0.0 0.00 0.30 0.30 92 1011.0
20260906023517 22 0.0 0.0 0.00 0.30 0.30 92 1011.1
20260906022558 22 0.0 1.6 0.00 0.30 0.30 92 1010.9
20260906021517 22 0.0 0.0 0.00 0.30 0.30 93 1011.0
20260906020517 23 0.0 0.0 0.00 0.30 0.30 92 1010.9
20260906015538 23 0.0 0.0 0.00 0.30 0.30 92 1010.9
20260906014517 23 0.0 0.0 0.00 0.30 0.30 92 1010.9
20260906013516 23 0.0 0.0 0.00 0.30 0.30 91 1010.8
20260906012516 23 0.0 0.0 0.00 0.30 0.30 90 1010.7
20260906011518 23 0.0 0.0 0.00 0.30 0.30 88 1010.7
20260906010517 23 0.0 0.0 0.00 0.30 0.30 88 1010.6
20260906005517 23 0.0 0.0 0.00 0.30 0.30 87 1010.6
20260906004518 24 0.0 0.0 0.00 0.30 0.30 87 1010.6
20260906003516 24 0.0 0.0 0.00 0.30 0.30 86 1010.6
20260906002516 24 0.0 0.0 0.00 0.30 0.30 85 1010.4
20260906001517 25 0.0 0.0 0.00 0.30 0.30 83 1010.1
20260906000517 25 0.0 0.0 0.00 0.30 0.30 81 1010.0
20260905235516 25 0.0 0.0 0.00 0.30 0.30 80 1009.8
20260905234618 25 0.0 0.0 0.00 0.30 0.30 80 1009.8
20260905233537 26 0.0 0.0 0.00 0.30 0.30 80 1009.9
20260905232516 26 0.0 0.0 0.00 0.30 0.30 80 1009.8
20260905231516 26 0.0 0.0 0.00 0.30 0.30 80 1009.7
20260905230518 26 0.0 0.0 0.00 0.30 0.30 79 1009.6
20260905225516 26 0.0 0.0 0.00 0.30 0.30 79 1009.6
20260905224516 27 0.0 0.0 0.00 0.30 0.30 80 1009.5
20260905223516 27 0.0 0.0 0.00 0.30 0.30 80 1009.5
20260905222518 27 0.0 0.0 0.00 0.30 0.30 79 1009.7
20260905221516 27 0.0 0.0 0.00 0.30 0.30 78 1009.6
20260905220516 27 0.0 0.0 0.00 0.30 0.30 76 1009.6
20260905215516 27 0.0 0.0 0.00 0.30 0.30 78 1009.8
20260905214516 27 0.0 0.0 0.00 0.30 0.30 79 1010.1
20260905213516 27 0.0 0.0 0.00 0.30 0.30 80 1010.3
20260905212516 26 0.0 0.0 0.00 0.30 0.30 80 1010.5
20260905211536 26 0.0 0.0 0.00 0.30 0.30 82 1010.4
20260905210538 26 0.0 0.0 0.00 0.30 0.30 83 1010.4
20260905205516 26 0.0 0.0 0.00 0.30 0.30 86 1010.4
20260905204516 25 0.0 0.0 0.00 0.30 0.30 89 1010.4
20260905203517 25 0.0 0.0 0.00 0.30 0.30 90 1010.7
20260905202516 24 0.0 0.0 0.00 0.30 0.30 90 1010.5
20260905201516 24 0.0 0.0 0.00 0.30 0.30 90 1010.4
20260905200516 23 0.0 0.0 0.00 0.30 0.30 89 1010.6
20260905195516 23 0.0 0.0 0.00 0.30 0.30 88 1010.8
20260905194516 23 0.0 0.0 0.00 0.30 0.30 86 1011.1
20260905193536 23 0.0 0.0 0.00 0.30 0.30 87 1011.1
20260905192516 23 0.0 1.6 0.00 0.30 0.30 85 1011.2
20260905191517 24 0.0 0.0 0.00 0.30 0.30 87 1010.4
20260905190516 24 0.0 1.6 0.00 0.30 0.30 85 1010.2
20260905185517 24 0.0 0.0 0.13 0.30 0.30 92 1010.2
20260905184516 24 0.0 0.0 0.30 0.30 0.30 92 1010.1
20260905183516 23 0.0 0.0 0.30 0.30 0.30 91 1010.4
20260905182516 24 0.0 1.6 0.30 0.30 0.30 88 1010.7
20260905181516 24 0.0 1.6 0.30 0.30 0.30 84 1011.2
20260905180516 26 0.0 3.2 0.30 0.30 0.30 78 1011.7
20260905175517 30 23 3.2 12.9 0.18 0.18 0.18 60 1012.4
20260905174536 35 0 3.2 14.5 0.00 0.00 0.00 55 1011.6
20260905173537 35 0.0 4.8 0.00 0.00 0.00 55 1011.3
20260905172516 35 0.0 3.2 0.00 0.00 0.00 53 1011.2
20260905171537 35 0.0 1.6 0.00 0.00 0.00 53 1011.4
20260905170516 35 0.0 3.2 0.00 0.00 0.00 56 1011.7
20260905165536 35 0 1.6 4.8 0.00 0.00 0.00 57 1011.7
20260905164516 35 0.0 3.2 0.00 0.00 0.00 54 1011.8
20260905163516 35 0.0 6.4 0.00 0.00 0.00 54 1011.8
20260905162516 34 0.0 3.2 0.00 0.00 0.00 57 1011.9
20260905161516 34 0.0 3.2 0.00 0.00 0.00 56 1012.1
20260905160516 34 0.0 3.2 0.00 0.00 0.00 60 1012.3
20260905155517 34 0.0 3.2 0.00 0.00 0.00 60 1012.3
20260905154516 33 0.0 1.6 0.00 0.00 0.00 64 1012.3
20260905153517 33 0.0 1.6 0.00 0.00 0.00 66 1012.2
20260905152516 32 338 1.6 3.2 0.00 0.00 0.00 64 1012.2
20260905151515 32 0.0 3.2 0.00 0.00 0.00 66 1012.2
20260905150536 32 0.0 1.6 0.00 0.00 0.00 67 1012.2
20260905145516 31 0.0 1.6 0.00 0.00 0.00 69 1012.3
20260905144557 31 135 1.6 3.2 0.00 0.00 0.00 71 1012.4
20260905143516 31 0.0 1.6 0.00 0.00 0.00 73 1012.5
20260905142533 31 0.0 3.2 0.00 0.00 0.00 71 1012.4
20260905141516 30 0.0 1.6 0.00 0.00 0.00 76 1012.3
20260905140537 29 0.0 1.6 0.00 0.00 0.00 79 1012.3
20260905135518 28 0.0 1.6 0.00 0.00 0.00 82 1012.4
20260905134517 27 0.0 1.6 0.00 0.00 0.00 83 1012.5
20260905133519 27 0.0 1.6 0.00 0.00 0.00 86 1012.5
20260905132517 26 0.0 1.6 0.00 0.00 0.00 87 1012.5
20260905131518 26 0.0 1.6 0.00 0.00 0.00 90 1012.5
20260905130518 25 0.0 1.6 0.00 0.00 0.00 93 1012.6
20260905125518 25 0.0 1.6 0.00 0.00 0.00 94 1012.6
20260905124518 24 0.0 0.0 0.00 0.00 0.00 95 1012.8
20260905123518 23 0.0 0.0 0.00 0.00 0.00 96 1012.8
20260905122538 23 0.0 0.0 0.00 0.00 0.00 96 1012.6
20260905121517 22 0.0 0.0 0.00 0.00 0.00 96 1012.6
20260905120517 22 0.0 0.0 0.00 0.00 0.00 96 1012.5
20260905115522 22 0.0 0.0 0.00 0.00 0.00 96 1012.3
20260905114517 22 0.0 0.0 0.00 0.00 0.00 96 1012.2
20260905113518 21 0.0 0.0 0.00 0.00 0.00 96 1012.3
20260905112519 21 0.0 0.0 0.00 0.00 0.00 96 1012.2
20260905111519 21 0.0 0.0 0.00 0.00 0.00 95 1012.1
20260905110517 21 0.0 0.0 0.00 0.00 0.00 95 1011.9
20260905105517 21 0.0 0.0 0.00 0.00 0.00 95 1011.8
20260905104517 21 0.0 0.0 0.00 0.00 0.00 95 1011.7
20260905103517 21 0.0 0.0 0.00 0.00 0.00 95 1011.7
20260905102517 22 0.0 0.0 0.00 0.00 0.00 95 1011.6
20260905101537 22 0.0 0.0 0.00 0.00 0.00 95 1011.5
20260905100517 22 0.0 0.0 0.00 0.00 0.00 95 1011.4
20260905095539 22 0.0 0.0 0.00 0.00 0.00 95 1011.5
20260905094517 22 0.0 0.0 0.00 0.00 0.00 95 1011.4
20260905093518 22 0.0 0.0 0.00 0.00 0.00 95 1011.4
20260905092519 22 0.0 0.0 0.00 0.00 0.00 95 1011.4
20260905091517 22 0.0 0.0 0.00 0.00 0.00 94 1011.4
20260905090517 22 0.0 0.0 0.00 0.00 0.00 95 1011.5
20260905085517 22 0.0 0.0 0.00 0.00 0.00 94 1011.6
20260905084517 22 0.0 0.0 0.00 0.00 0.00 94 1011.5
20260905083558 22 0.0 0.0 0.00 0.00 0.00 94 1011.6
20260905082517 22 0.0 0.0 0.00 0.00 0.00 93 1011.6
20260905081517 22 0.0 0.0 0.00 0.00 0.00 93 1011.7
20260905080517 22 0.0 0.0 0.00 0.00 0.00 93 1011.9
20260905075517 22 0.0 0.0 0.00 0.00 0.00 93 1012.1
20260905074517 22 0.0 0.0 0.00 0.00 0.00 92 1012.1
20260905073517 23 0.0 0.0 0.00 0.00 0.00 92 1012.1
20260905072518 23 0.0 0.0 0.00 0.00 0.00 92 1012.1